This is the latest recevied weather packets stored in our database for station/object W1RCY. If no packets are shown the sender has not sent any weather packets the latest 10 day(s).
| Time | Temp. | Humidity | Pressure | Rain* | Wind** | Luminosity | Snow |
|---|---|---|---|---|---|---|---|
| 1777587109 | 8.89° C | 99% | 1003.9 hPa | 0 mm | - | 33 W/m² | - |
| 1777586805 | 8.89° C | 99% | 1004.1 hPa | 0 mm | - | 43 W/m² | - |
| 1777586501 | 8.89° C | 99% | 1004.1 hPa | 0 mm | - | 54 W/m² | - |
| 1777586196 | 8.89° C | 99% | 1004.2 hPa | 0 mm | - | 58 W/m² | - |
| 1777585894 | 8.89° C | 99% | 1003.9 hPa | 0 mm | - | 48 W/m² | - |
| 1777585588 | 8.89° C | 99% | 1004.3 hPa | 0 mm | - | 39 W/m² | - |
| 1777585284 | 8.89° C | 99% | 1003.9 hPa | 0 mm | - | 44 W/m² | - |
| 1777584984 | 8.89° C | 99% | 1003.7 hPa | 0 mm | - | 49 W/m² | - |
| 1777584681 | 8.89° C | 99% | 1003.9 hPa | 0 mm | - | 60 W/m² | - |
| 1777584379 | 8.89° C | 99% | 1004 hPa | 0 mm | - | 64 W/m² | - |
| 1777584075 | 9.44° C | 99% | 1004 hPa | 0 mm | - | 93 W/m² | - |
| 1777583770 | 8.89° C | 99% | 1003.9 hPa | 0 mm | - | 83 W/m² | - |
| 1777583469 | 9.44° C | 99% | 1003.9 hPa | 0 mm | - | 88 W/m² | - |
| 1777583164 | 9.44° C | 99% | 1003.7 hPa | 0 mm | - | 96 W/m² | - |
| 1777582859 | 8.89° C | 99% | 1004.1 hPa | 0 mm | - | 101 W/m² | - |
| 1777582556 | 8.89° C | 99% | 1003.9 hPa | 0 mm | - | 117 W/m² | - |
| 1777582250 | 8.89° C | 99% | 1003.9 hPa | 0 mm | - | 180 W/m² | - |
| 1777581944 | 8.89° C | 99% | 1004.1 hPa | 0 mm | - | 173 W/m² | - |
| 1777581639 | 8.89° C | 99% | 1003.9 hPa | 0 mm | - | 151 W/m² | - |
| 1777581332 | 8.89° C | 99% | 1004.1 hPa | 0 mm | - | 104 W/m² | - |
| 1777581028 | 8.89° C | 99% | 1003.9 hPa | 0 mm | - | 93 W/m² | - |
| 1777580727 | 8.89° C | 99% | 1004.2 hPa | 1.78 mm | - | 113 W/m² | - |
| 1777580424 | 8.89° C | 99% | 1004.2 hPa | 1.78 mm | - | 111 W/m² | - |
| 1777580120 | 8.89° C | 99% | 1004.1 hPa | 0 mm | - | 86 W/m² | - |
| 1777579816 | 8.89° C | 99% | 1004.1 hPa | 0 mm | - | 87 W/m² | - |
* Rain latest hour (hover to see other rain measurements)
** Current wind speed in m/s (hover to see current wind gust speed)